Content
SEND FEEDBACK

Daily
Averages
Monthly
Summary
Switzerland

PAYERNE, SWITZERLAND


Home > Europe > Switzerland
Elevation: 1463 feet     Latitude: 46 50N     Longitude: 006 55E

WEATHER
 
SELECT A DAY
Number of Records: 86,764;   Date Range: 12/15/98 - 7/29/14
 
SHARE

PRINT THIS DATA

[ ← Previous Day ]
WEATHER ALMANAC - JANUARY 21, 2013
[ Next Day → ]
[ °C ]   °F
Weather ElementAverageHighLow
Temperature27.2 °F32 °F (3:20 pm)23 °F (12:50 am)
Dewpoint23.9 °F28.4 °F (2:20 pm)19.4 °F (8:20 am)
Humidity87.5 %100 % (5:20 am)80 % (8:50 am)
Barometer29.38 in29.44 in (9:20 pm)29.36 in (12:50 am)
Wind Speed6.1 mph12.7 mph (3:50 pm)
Weather ElementAverage
Visibility5.2 mi
Wind DirectionSE (131.9 °)

Weather ElementTotal
Precipitation---
Heating Degree Days37.5 (Base 65)
Averaged from 47 records on January 21, 2013
WEATHER CONDITIONS BREAKOUT
WIND DIRECTION BREAKOUT
WEATHER BY HOUR - JANUARY 21, 2013
[ °C ]   °F
Local TimeTemperatureDewpointHumidityBarometerVisibilityWind DirectionWind SpeedGust SpeedPrecipitationEventsConditions
12:50 AM23.0 °F21.2 °F93 %29.36 in2.2 miWSW (240°)6.9 mphSnowLight Snow
1:20 AM23.0 °F21.2 °F93 %29.36 in1.2 miSW (220°)4.6 mphSnowLight Snow
1:50 AM23.0 °F21.2 °F93 %29.36 in6.2 miWSW (250°)5.8 mphSnowLight Snow
2:20 AM23.0 °F21.2 °F93 %29.36 in5.6 miWSW (250°)5.8 mphSnowLight Snow
2:50 AM23.0 °F21.2 °F93 %29.36 inVariable4.6 mphSnowLight Snow
3:20 AM23.0 °F21.2 °F93 %29.36 in6.2 miWSW (250°)8.1 mphSnowLight Snow
3:50 AM23.0 °F21.2 °F93 %29.36 in6.2 miWSW (240°)8.1 mphSnowLight Snow
4:20 AM23.0 °F21.2 °F93 %29.36 in6.2 miVariable5.8 mphOvercast
4:50 AM23.0 °F21.2 °F93 %29.36 in6.2 miVariable6.9 mphOvercast
5:20 AM23.0 °F23.0 °F100 %29.36 in6.2 miWSW (240°)5.8 mphOvercast
5:50 AM23.0 °F23.0 °F100 %29.36 in6.2 miVariable4.6 mphOvercast
6:20 AM23.0 °F21.2 °F93 %29.36 in6.2 miVariable4.6 mphOvercast
6:50 AM23.0 °F21.2 °F93 %29.36 in6.2 miVariable4.6 mphOvercast
7:20 AM23.0 °F23.0 °F100 %29.36 in3.1 miSSW (210°)2.3 mphOvercast
7:50 AM23.0 °F21.2 °F93 %29.36 in6.2 miVariable2.3 mphMostly Cloudy
8:20 AM23.0 °F19.4 °F86 %29.36 in6.2 miVariable5.8 mphMostly Cloudy
8:50 AM24.8 °F19.4 °F80 %29.36 in6.2 miVariable4.6 mphMostly Cloudy
9:20 AM23.0 °F19.4 °F86 %29.36 in6.2 miVariable2.3 mphMostly Cloudy
9:50 AM26.6 °F21.2 °F80 %29.36 inVariable3.5 mphClear
10:20 AM26.6 °F21.2 °F80 %29.36 inSW (220°)3.5 mphClear
10:50 AM26.6 °F21.2 °F80 %29.36 inVariable3.5 mphClear
11:20 AM28.4 °F23.0 °F80 %29.36 inVariable4.6 mphClear
11:50 AM28.4 °F23.0 °F80 %29.36 inSW (220°)8.1 mphClear
12:20 PM28.4 °F23.0 °F80 %29.36 in2.5 miSW (220°)5.8 mphSnowLight Snow
12:50 PM28.4 °F24.8 °F86 %29.36 in3.7 miVariable5.8 mphSnowLight Snow Showers
1:20 PM30.2 °F24.8 °F80 %29.36 in3.7 miSW (230°)8.1 mphSnowLight Snow
1:50 PM30.2 °F26.6 °F86 %29.36 in6.2 miSW (230°)4.6 mphSnowLight Snow
2:20 PM30.2 °F28.4 °F93 %29.36 in3.1 miSW (220°)8.1 mphSnowLight Snow
2:50 PM30.2 °F28.4 °F93 %29.36 in3.1 miSW (220°)6.9 mphSnowLight Snow
3:20 PM32.0 °F28.4 °F87 %29.39 in6.2 miVariable10.4 mphSnowLight Snow Showers
3:50 PM32.0 °F28.4 °F87 %29.39 in3.7 miSW (230°)12.7 mphSnowLight Snow Showers
4:20 PM30.2 °F28.4 °F93 %29.39 in1.8 miSW (230°)12.7 mphSnowLight Snow
4:50 PM30.2 °F26.6 °F86 %29.39 in3.7 miVariable11.5 mphSnowLight Snow
5:20 PM30.2 °F26.6 °F86 %29.39 in4.3 miSW (230°)8.1 mphSnowLight Snow
5:50 PM30.2 °F26.6 °F86 %29.42 in4.3 miSW (230°)5.8 mphSnowLight Snow
6:20 PM30.2 °F26.6 °F86 %29.42 in6.2 miSW (230°)8.1 mphSnowLight Snow
6:50 PM30.2 °F26.6 °F86 %29.42 in6.2 miWSW (240°)9.2 mphSnowLight Snow
7:20 PM30.2 °F26.6 °F86 %29.42 in6.2 miSW (230°)6.9 mph
7:50 PM30.2 °F24.8 °F80 %29.42 in6.2 miVariable3.5 mphMostly Cloudy
8:20 PM30.2 °F24.8 °F80 %29.42 in6.2 miSSW (210°)4.6 mphMostly Cloudy
8:50 PM30.2 °F24.8 °F80 %29.42 in6.2 miSW (220°)3.5 mphMostly Cloudy
9:20 PM30.2 °F24.8 °F80 %29.44 in6.2 miVariable2.3 mphMostly Cloudy
9:50 PM30.2 °F24.8 °F80 %29.44 in6.2 miWSW (240°)3.5 mphScattered Clouds
10:20 PM30.2 °F26.6 °F86 %29.44 in6.2 miSW (220°)5.8 mphScattered Clouds
10:50 PM30.2 °F26.6 °F86 %29.44 in6.2 miSW (230°)6.9 mphMostly Cloudy
11:20 PM30.2 °F26.6 °F86 %29.44 in6.2 miVariable8.1 mphMostly Cloudy
11:50 PM30.2 °F26.6 °F86 %29.44 in6.2 miVariable8.1 mphSnowLight Snow
Hourly data recorded from LSGC, located miles away from Payerne, Switzerland







STORIES FROM OUR PARTNERS